Main page
METAR-TAF:

METAR-TAF

Airports :

Oil platform

J6-a, Netherlands

latitude: 53-49-27N, longitude: 2-56-43E, elevation: 34 m

Current weather observation

The report was made 14 minutes ago, at 13:55 UTC
Wind 22 kt from the South/Southwest
Temperature 17°C
Humidity 82%
Pressure 1011 hPa
Visibility 10 km or more
drizzle, rain

METAR: EHJA 161355Z AUTO 21022KT 9999 DZRA FEW020/// SCT037/// 17/14 Q1011 W///H///

Time: 16:09 (14:09 UTC)


TAF: missing

Weather observations and forecasts of more than 4000 airports (METAR and TAF reports).

The available stations are represented by yellow and red dots on the map.

Hover mouse over dot to see the name of the station.

Then click to see weather observations and forecasts.

To change the map : click on the green buttons with a black cross to zoom in, on the green button with a dash to zoom out, or on the green arrows for adjacent maps.


METAR-TAF: